Новоназимово

Россия / Красноярский край     59°34′10″N   90°48′59″E
темп.,
°C
ветер,
м/с
пор.,
м/с
влажн.,
%
обл.,
%
осадки,
мм/ч
давл.,
гПа
погр.,
м
4 марта, чт
чт401:00−21юв5119497 0.0 1025475
04:00−21юв51295100 0.1 1024456
07:00−21юв61396100 0.4 1024435
10:00−19юв61295100 0.3 1021412
13:00−16юв61294100 0.6 1020475
16:00−13ююв61292100 0.3 1018514
19:00−11юв51195100 1.3 1017536
22:00−8ю41095100 1.4 1016677
5 марта, пт
пт501:00−8ю3995100 2.3 1014560
04:00−7ююв4995100 0.9 1012565
07:00−7ююв41095100 2.1 1010625
10:00−5ююв51095100 1.2 1009712
13:00−3ю5995100 2.3 1007787
16:00−3ююз4994100 0.9 1006826
19:00−3ю41094100 1.3 1007785
22:00−4ююз4996100 0.9 1006728
6 марта, сб
сб601:00−5ююз31195100 1.3 1008678
04:00−5юз51192100 0.4 1009755
07:00−7ююз41094100 0.5 1010747
10:00−5юз4992100 0.6 1008880
13:00−4ююз4889100 0.9 1008908
16:00−3ююз4894100 0.5 1006777
19:00−4ююз4996100 1.3 1006665
22:00−5ююз31094100 0.3 1004599
7 марта, вс
вс701:00−6ююз3995100 0.7 1004575
04:00−6ююз31095100 0.5 1003603
07:00−5ю41196100 1.3 1003723
10:00−5зюз71386100 0.6 10041174
13:00−5зюз51084100 0.6 10081211
16:00−6зюз5986100 0.3 10101105
19:00−9зюз31094100 0.4 1013434
22:00−13юз2295100 0.1 101437
8 марта, пн
пн801:00−13ю2296100 0.1 101456
04:00−11юв2696100 0.2 1011235
07:00−9юв41095100 0.9 1009514
10:00−7юв4995100 0.9 1005446
13:00−1ю4997100 2.6 1002606
16:000юз61292100 1.1 10011163
19:00−2з51288100 2.3 10031094
22:00−9зсз3994100 0.0 1006439